Last 6 Hours

Alpine-Summit 8643' (Ward Mt.)

15 Minute Data | America/Los_Angeles
as of 2/18/20 8:57 AM PST
Date & Time Temp (°F) RH (%) Dew Pt (°F) Wet Bulb (°F) Wind Dir (°) Wind Spd (mph) Wind Gust (mph) WindChill (°F)
2/18/20 - 0845 29.7 32 3.3 21.8 SW | 221 23.6 28.3 16.0
2/18/20 - 0830 29.9 32 3.6 22.0 SW | 219 22.0 25.0 17.0
2/18/20 - 0815 30.3 32 3.6 22.3 SW | 217 20.6 23.9 17.7
2/18/20 - 0800 30.4 33 4.6 22.6 SW | 216 19.7 22.6 17.8
2/18/20 - 0745 30.0 30 2.7 22.0 SW | 214 21.7 24.5 16.7
2/18/20 - 0730 29.2 35 5.0 21.8 SW | 217 20.9 23.6 14.8
2/18/20 - 0715 27.8 35 3.5 20.7 SSW | 212 21.6 24.1 13.9
2/18/20 - 0700 27.7 35 3.6 20.6 SW | 216 21.5 24.4 13.9
2/18/20 - 0645 27.7 35 3.4 20.6 SW | 214 22.0 24.3 13.9
2/18/20 - 0630 27.6 35 3.6 20.5 SW | 214 21.7 23.8 14.0
2/18/20 - 0615 27.9 35 3.5 20.8 SSW | 211 21.1 23.7 14.2
2/18/20 - 0600 27.7 35 3.8 20.7 SSW | 213 19.1 22.3 14.9
2/18/20 - 0545 28.0 36 4.3 20.9 SSW | 210 20.1 23.0 15.1
2/18/20 - 0530 28.5 35 4.6 21.3 SW | 217 20.3 24.2 15.0
2/18/20 - 0515 28.3 36 4.9 21.3 SW | 215 19.7 23.1 15.5
2/18/20 - 0500 28.5 36 5.2 21.5 SW | 217 16.7 20.6 16.6
2/18/20 - 0445 28.7 36 5.1 21.6 SW | 214 14.4 17.4 17.8
2/18/20 - 0430 28.9 38 6.2 21.9 SSW | 210 15.4 18.6 17.5
2/18/20 - 0415 29.0 39 7.2 22.2 SSW | 209 17.0 20.6 17.4
2/18/20 - 0400 29.5 39 7.4 22.5 SSW | 211 17.5 20.4 17.6
2/18/20 - 0345 29.7 38 7.4 22.6 SSW | 212 18.0 20.5 17.6
2/18/20 - 0330 29.8 37 6.6 22.5 SSW | 211 18.1 22.4 17.9
2/18/20 - 0315 30.0 32 3.9 22.2 SSW | 212 16.3 19.5 18.7
2/18/20 - 0300 30.1 31 3.0 22.0 SW | 219 15.6 20.9 19.1
Max 30.4 39 7.4 22.6 - 23.6 28.3 19.1
Avg 29.0 35 4.6 21.6 - 19.4 22.6 16.3
Min 27.6 30 2.7 20.5 - 14.4 17.4 13.9